Weather in Sunnyvale

United States     37°22′10″N   122°02′14″W
temp.,
°C
wind,
m/s
gust,
m/s
humid.,
%
clouds,
%
prec.,
mm/h
press.,
hPa
HPBL,
m
25 may, wed
wed2523:00+21nw11295 0.0 100911
02:00+21s01265 0.0 100911
05:00+19s112827 0.0 100911
08:00+25s11266 0.0 1009120
11:00+32nnw211988 0.0 10091005
14:00+34nw3219100 0.0 10081568
17:00+32wsw2225100 0.0 10081100
20:00+21ssw335418 0.0 1009173
26 may, thu
thu2623:00+15s34755 0.0 1011122
02:00+14ssw22800 0.0 101089
05:00+12ssw23845 0.0 1011102
08:00+15ssw346967 0.0 1012293
11:00+23ssw2340100 0.0 1012727
14:00+26ssw3333100 0.0 1011992
17:00+25ssw2236100 0.0 1011737
20:00+18ssw2263100 0.0 1013217
27 may, fri
fri2723:00+12ssw238628 0.0 1016151
02:00+11ssw2287100 0.0 101595
05:00+10ssw118891 0.0 101662
08:00+15ssw0167100 0.0 1016226
11:00+23n2337100 0.0 1015766
14:00+28nnw4425100 0.0 10141740
17:00+24nw4430100 0.0 10141102
20:00+18nw355399 0.0 1015355
28 may, sat
sat2823:00+14w227357 0.0 1015142
02:00+13w118592 0.0 1014104
05:00+12sw118988 0.0 101458
08:00+14wsw118077 0.0 1014304
11:00+21nw3443100 0.0 10141304
14:00+23wnw454197 0.0 10131756
17:00+20nw455461 0.0 10121258
20:00+14wnw36771 0.0 1014517
29 may, sun
sun2923:00+8w238710 0.0 1015168
02:00+7w13889 0.0 1014156
05:00+7wnw24907 0.0 1014220
08:00+10nw36700 0.0 1015527
11:00+17nnw45340 0.0 10131161
14:00+19nw56300 0.0 10121459
17:00+17wnw58430 0.0 10121020
20:00+10wnw410710 0.0 1013730